NORTHAMPTON WEATHER

The latest weather and forecasts for Hardingstone

run by 1st Hardingstone Viking Scout Troop.


Thunder radar more information blitzortung!


Rain radar more information rain snow radar


Select another period ( hide this area )

Units Period Custom range Directly to
Metric English Both
Daily Weekly Monthly Yearly
use both date-selectors for a custom range
previous Day
With this date

WeatherUnderground graphs for this period ( click here )


Daily Summary for Saturday May 21 2022
Time Temp. ( °C ) Dew pt. ( °C ) Wind ( km/h ) from Gust ( km/h ) Pressure ( hPa ) Humid.( % ) Rainrate ( cm ) Solar ( W/m2 )
High10,0 7,8 11,0 SW ( 324/342 ) 20,0 1005,6 93 - 0
Average9,2 7,6 9,2 SW #35/37 16,8 1005,3 90 - NAN #0/37
Low8,4 7,3 8,0   13,0 1004,8 86 -  
Daily Tabular details for Saturday May 21 2022
Time Temp. ( °C ) Dew pt. ( °C ) Wind ( km/h ) from Gust ( km/h ) Pressure ( hPa ) Humid.( % ) Rainrate ( cm ) Solar ( W/m2 )
00:04 10,0 7,8 11,0 SW 20,0 1004,8 86 - -
00:09 9,9 7,7 10,0 SW 20,0 1004,8 86 - -
00:14 9,8 7,7 8,0 SW 15,0 1004,8 87 - -
00:19 9,7 7,7 10,0 SW 17,0 1004,8 87 - -
00:24 9,6 7,7 10,0 SW 19,0 1004,9 88 - -
00:29 9,6 7,7 10,0 SW 19,0 1005,0 88 - -
00:34 9,6 7,7 10,0 SW 19,0 1005,1 88 - -
00:39 9,5 7,8 9,0 SW 19,0 1005,1 89 - -
00:44 9,5 7,8 9,0 SW 17,0 1005,2 89 - -
00:49 9,5 7,8 10,0 SW 17,0 1005,2 89 - -
00:54 9,4 7,7 9,0 SW 17,0 1005,2 89 - -
00:59 9,4 7,8 10,0 SW 17,0 1005,2 90 - -
01:04 9,4 7,8 8,0 SW 17,0 1005,2 90 - -
01:09 9,3 7,8 9,0 SSW 17,0 1005,2 90 - -
01:14 9,3 7,8 8,0 SW 13,0 1005,2 90 - -
01:19 9,3 7,7 8,0 SW 13,0 1005,3 90 - -
01:24 9,2 7,7 8,0 SW 19,0 1005,3 90 - -
01:29 9,2 7,7 10,0 SW 19,0 1005,4 90 - -
01:34 9,2 7,8 9,0 SW 19,0 1005,4 91 - -
01:39 9,2 7,8 9,0 SSW 19,0 1005,5 91 - -
01:44 9,2 7,8 10,0 SW 17,0 1005,5 91 - -
01:49 9,2 7,8 10,0 SW 17,0 1005,5 91 - -
01:54 9,1 7,7 10,0 SW 17,0 1005,6 91 - -
01:59 9,1 7,7 10,0 SW 17,0 1005,5 91 - -
02:04 9,1 7,7 9,0 SW 15,0 1005,6 91 - -
02:09 9,0 7,6 9,0 SW 17,0 1005,6 91 - -
02:14 8,9 7,6 8,0 SW 17,0 1005,6 91 - -
02:19 8,8 7,4 10,0 SW 17,0 1005,6 91 - -
02:24 8,8 7,4 9,0 SW 17,0 1005,5 91 - -
02:29 8,7 7,4 9,0 SW 13,0 1005,4 92 - -
02:34 8,7 7,4 9,0 SW 17,0 1005,3 92 - -
02:39 8,7 7,4 10,0 SW 17,0 1005,4 92 - -
02:44 8,6 7,4 9,0 SW 17,0 1005,4 92 - -
02:49 8,6 7,3 9,0 SW 15,0 1005,4 92 - -
02:54 8,5 7,3 9,0 SW 13,0 1005,5 92 - -
02:59 8,5 7,3 9,0 SW 13,0 1005,5 92 - -
03:04 8,4 7,4 8,0 SW 13,0 1005,5 93 - -
Daily Summary for Saturday May 21 2022
Time Temp. ( °C ) Dew pt. ( °C ) Wind ( km/h ) from Gust ( km/h ) Pressure ( hPa ) Humid.( % ) Rainrate ( cm ) Solar ( W/m2 )
High10,0 7,8 11,0 SW ( 324/342 ) 20,0 1005,6 93 - 0
Average9,2 7,6 9,2 SW #35/37 16,8 1005,3 90 - NAN #0/37
Low8,4 7,3 8,0   13,0 1004,8 86 -  
Daily Tabular details for Saturday May 21 2022
Time Temp. ( °C ) Dew pt. ( °C ) Wind ( km/h ) from Gust ( km/h ) Pressure ( hPa ) Humid.( % ) Rainrate ( cm ) Solar ( W/m2 )
00:04 10,0 7,8 11,0 SW 20,0 1004,8 86 - -
00:09 9,9 7,7 10,0 SW 20,0 1004,8 86 - -
00:14 9,8 7,7 8,0 SW 15,0 1004,8 87 - -
00:19 9,7 7,7 10,0 SW 17,0 1004,8 87 - -
00:24 9,6 7,7 10,0 SW 19,0 1004,9 88 - -
00:29 9,6 7,7 10,0 SW 19,0 1005,0 88 - -
00:34 9,6 7,7 10,0 SW 19,0 1005,1 88 - -
00:39 9,5 7,8 9,0 SW 19,0 1005,1 89 - -
00:44 9,5 7,8 9,0 SW 17,0 1005,2 89 - -
00:49 9,5 7,8 10,0 SW 17,0 1005,2 89 - -
00:54 9,4 7,7 9,0 SW 17,0 1005,2 89 - -
00:59 9,4 7,8 10,0 SW 17,0 1005,2 90 - -
01:04 9,4 7,8 8,0 SW 17,0 1005,2 90 - -
01:09 9,3 7,8 9,0 SSW 17,0 1005,2 90 - -
01:14 9,3 7,8 8,0 SW 13,0 1005,2 90 - -
01:19 9,3 7,7 8,0 SW 13,0 1005,3 90 - -
01:24 9,2 7,7 8,0 SW 19,0 1005,3 90 - -
01:29 9,2 7,7 10,0 SW 19,0 1005,4 90 - -
01:34 9,2 7,8 9,0 SW 19,0 1005,4 91 - -
01:39 9,2 7,8 9,0 SSW 19,0 1005,5 91 - -
01:44 9,2 7,8 10,0 SW 17,0 1005,5 91 - -
01:49 9,2 7,8 10,0 SW 17,0 1005,5 91 - -
01:54 9,1 7,7 10,0 SW 17,0 1005,6 91 - -
01:59 9,1 7,7 10,0 SW 17,0 1005,5 91 - -
02:04 9,1 7,7 9,0 SW 15,0 1005,6 91 - -
02:09 9,0 7,6 9,0 SW 17,0 1005,6 91 - -
02:14 8,9 7,6 8,0 SW 17,0 1005,6 91 - -
02:19 8,8 7,4 10,0 SW 17,0 1005,6 91 - -
02:24 8,8 7,4 9,0 SW 17,0 1005,5 91 - -
02:29 8,7 7,4 9,0 SW 13,0 1005,4 92 - -
02:34 8,7 7,4 9,0 SW 17,0 1005,3 92 - -
02:39 8,7 7,4 10,0 SW 17,0 1005,4 92 - -
02:44 8,6 7,4 9,0 SW 17,0 1005,4 92 - -
02:49 8,6 7,3 9,0 SW 15,0 1005,4 92 - -
02:54 8,5 7,3 9,0 SW 13,0 1005,5 92 - -
02:59 8,5 7,3 9,0 SW 13,0 1005,5 92 - -
03:04 8,4 7,4 8,0 SW 13,0 1005,5 93 - -

Download your copy of this data-set  here

Our weather-data as stored at Weather Underground. Script developed by Jim McMurry. Adapted for the template by Leuven-Template.eu

You find our weather info also at:

UK Metoffice

WeatherCloud

Weather Underground

United Kingdom Weather Network

AWEKAS

Citizen Weather Observer Program (CWOP)

HAMweather, WeatherForYou, PWS Weather

Equipment we use:

Weather-station
Davis VP2

Weather-program
Weather Display

Provider

Davis VP2

Weather Display